Location: Unspecified
(52.1971°N, 0.0000°E)
Time: 17:15:27
(UTC+00:00)

ISS - Pass Details

Date: 27 May 2019
Orbit: 407 x 418 km, 51.6° (Epoch: 25 June)

Event Time Altitude Azimuth Distance (km) Brightness Sun altitude
Rises 21:17:47 0° 277° (W) 2,357 0.8 -8.7°
Reaches altitude 10° 21:19:52 10° 275° (W) 1,495 -0.3 -8.8°
Maximum altitude 21:23:13 71° 192° (SSW) 445 -3.8 -9.1°
Drops below altitude 10° 21:26:34 10° 107° (ESE) 1,499 -1.4 -9.4°
Enters shadow 21:26:48 - 107° (ESE) 1,591 -1.3 -9.5°
